Location: Drocourt
(49.0571°N, 1.7669°E)
Time: 16:11:01
(UTC+00:00)

Vanguard 3 - Pass Details

Date: 21 April 2024
Orbit: 509 x 3233 km, 33.3° (Epoch: 23 May)

Event Time Altitude Azimuth Distance (km) Brightness Sun altitude
Rises 06:17:13 0° 253° (WSW) 5,700 10.8 13.2°
Reaches altitude 10° 06:22:19 10° 243° (WSW) 4,175 10.3 14.1°
Maximum altitude 06:30:11 25° 194° (SSW) 2,326 9.5 15.4°
Drops below altitude 10° 06:35:26 10° 141° (SE) 2,677 10.5 16.2°
Sets 06:37:56 0° 127° (SE) 3,340 11.2 16.6°
